Location: Platte
(43.3870°N, 98.8440°W)
Time: 20:36:22
(UTC-05:00)

Helios 1B rocket - Pass Details

Date: 21 May 2018
Orbit: 576 x 585 km, 98.2° (Epoch: 20 August)

Event Time Altitude Azimuth Distance (km) Brightness Sun altitude
Rises 23:17:38 0° 12° (NNE) 2,823 6.6 -19.2°
Reaches altitude 10° 23:19:48 10° 12° (NNE) 1,918 5.7 -19.4°
Maximum altitude 23:23:58 85° 285° (WNW) 594 2.4 -19.8°
Enters shadow 23:25:28 39° 199° (SSW) 886 3.0 -19.9°
